Regional Weather Roundup
Issued by NWS

Home | Current Version | Previous Version | Text Only | Print | Product List | Glossary On
Versions: 1 2 3 4 5 6 7 8 9 10 11 12 13 14 15 16 17 18 19 20 21 22 23 24 25 26 27
000
ASPQ40 PGUM 191712
RWRPQ
WEATHER ROUNDUP FOR THE MARIANAS AND MICRONESIA
NATIONAL WEATHER SERVICE TIYAN GU
300 AM CHST FRI JAN 20 2017

GUZ001>004-191800-
MARIANA ISLANDS-

CITY           SKY/WX    TMP DP  RH WIND       PRES   REMARKS
GUAM AIRPORT   MOCLDY    77  73  88 NE9       29.93F
ANDERSEN AFB   CLOUDY    79  70  73 NE16      29.95S
ROTA AIRPORT   NOT AVBL
TINIAN AP      NOT AVBL
SAIPAN AP      PTCLDY    77  70  78 E17       29.94F

$$

PMZ161-191800-
REPUBLIC OF PALAU-

CITY           SKY/WX    TMP DP  RH WIND       PRES   REMARKS
KOROR AP       MOCLDY    77  77 100 NE3       29.82F
KOROR WSO      CLOUDY    81  77  89 E6        29.84F

$$

PMZ171>174-191800-
FEDERATED STATES OF MICRONESIA-

CITY           SKY/WX    TMP DP  RH WIND       PRES   REMARKS
YAP AIRPORT    MOCLDY    81  77  89 E10       29.83F
CHUUK AP       CLOUDY    82  79  89 NE9       29.79S HX  93
POHNPEI AP     NOT AVBL
POHNPEI WSO    MOCLDY    82  70  65 NE13      29.80S
KOSRAE AP      NOT AVBL

$$

PMZ181-191800-
REPUBLIC OF THE MARSHALL ISLANDS-

CITY           SKY/WX    TMP DP  RH WIND       PRES   REMARKS
KWAJALEIN AP   NOT AVBL
MAJURO AP      NOT AVBL
MAJURO WSO     MOCLDY    82  73  74 NE12      29.77R

$$





USA.gov is the U.S. government's official web portal to all federal, state and local government web resources and services.